Year,Month,Day,Hour,Minute,Value (Times are PST for temperature in C)
2008,04,02,00,00,3.90
2008,04,02,00,01,3.90
2008,04,02,00,02,3.90
2008,04,02,00,03,3.90
2008,04,02,00,04,3.90
2008,04,02,00,05,3.80
2008,04,02,00,06,3.80
2008,04,02,00,07,3.80
2008,04,02,00,08,3.80
2008,04,02,00,09,3.80
2008,04,02,00,10,3.80
2008,04,02,00,11,3.80
2008,04,02,00,12,3.80
2008,04,02,00,13,3.80
2008,04,02,00,14,3.80
2008,04,02,00,15,3.80
2008,04,02,00,16,3.80
2008,04,02,00,17,3.80
2008,04,02,00,18,3.80
2008,04,02,00,19,3.80
2008,04,02,00,20,3.80
2008,04,02,00,21,3.80
2008,04,02,00,22,3.80
2008,04,02,00,23,3.80
2008,04,02,00,24,3.80
2008,04,02,00,25,3.80
2008,04,02,00,26,3.80
2008,04,02,00,27,3.80
2008,04,02,00,28,3.80
2008,04,02,00,29,3.80
2008,04,02,00,30,3.80
2008,04,02,00,31,3.80
2008,04,02,00,32,3.80
2008,04,02,00,33,3.80
2008,04,02,00,34,3.80
2008,04,02,00,35,3.80
2008,04,02,00,36,3.80
2008,04,02,00,37,3.80
2008,04,02,00,38,3.80
2008,04,02,00,39,3.80
2008,04,02,00,40,3.80
2008,04,02,00,41,3.80
2008,04,02,00,42,3.70
2008,04,02,00,43,3.70
2008,04,02,00,44,3.70
2008,04,02,00,45,3.70
2008,04,02,00,46,3.70
2008,04,02,00,47,3.70
2008,04,02,00,48,3.70
2008,04,02,00,49,3.70
2008,04,02,00,50,3.70
2008,04,02,00,51,3.70
2008,04,02,00,52,3.70
2008,04,02,00,53,3.70
2008,04,02,00,54,3.70
2008,04,02,00,55,3.70
2008,04,02,00,56,3.70
2008,04,02,00,57,3.60
2008,04,02,00,58,3.60
2008,04,02,00,59,3.60
2008,04,02,01,00,3.60
2008,04,02,01,01,3.60
2008,04,02,01,02,3.60
2008,04,02,01,03,3.60
2008,04,02,01,04,3.60
2008,04,02,01,05,3.60
2008,04,02,01,06,3.60
2008,04,02,01,07,3.60
2008,04,02,01,08,3.60
2008,04,02,01,09,3.60
2008,04,02,01,10,3.70
2008,04,02,01,11,3.70
2008,04,02,01,12,3.80
2008,04,02,01,13,3.80
2008,04,02,01,14,3.80
2008,04,02,01,15,3.80
2008,04,02,12,02,7.90
2008,04,02,12,03,7.90
2008,04,02,12,04,8.00
2008,04,02,12,05,8.10
2008,04,02,12,06,8.30
2008,04,02,12,07,8.30
2008,04,02,12,08,8.40
2008,04,02,12,09,8.60
2008,04,02,12,10,8.70
2008,04,02,12,11,8.90
2008,04,02,12,12,8.90
2008,04,02,12,13,8.80
2008,04,02,12,14,8.80
2008,04,02,12,15,8.70
2008,04,02,12,16,8.70
2008,04,02,12,17,8.70
2008,04,02,12,18,8.70
2008,04,02,12,19,8.70
2008,04,02,12,20,8.90
2008,04,02,12,21,9.00
2008,04,02,12,22,9.20
2008,04,02,12,23,9.20
2008,04,02,12,24,9.20
2008,04,02,12,25,9.20
2008,04,02,12,26,9.10
2008,04,02,12,27,9.00
2008,04,02,12,28,9.00
2008,04,02,12,29,9.10
2008,04,02,12,30,8.90
2008,04,02,12,31,8.80
2008,04,02,12,32,8.70
2008,04,02,12,33,8.70
2008,04,02,12,34,8.70
2008,04,02,12,35,8.60
2008,04,02,12,36,8.50
2008,04,02,12,37,8.50
2008,04,02,12,38,8.50
2008,04,02,12,39,8.50
2008,04,02,12,40,8.60
2008,04,02,12,41,8.70
2008,04,02,12,42,8.70
2008,04,02,12,43,8.90
2008,04,02,12,44,9.00
2008,04,02,12,45,9.20
2008,04,02,12,46,9.20
2008,04,02,12,47,9.20
2008,04,02,12,48,9.00
2008,04,02,12,49,8.70
2008,04,02,12,50,8.60
2008,04,02,12,51,8.50
2008,04,02,12,52,8.40
2008,04,02,12,53,8.40
2008,04,02,12,54,8.40
2008,04,02,12,55,8.50
2008,04,02,12,56,8.50
2008,04,02,12,57,8.50
2008,04,02,12,58,8.60
2008,04,02,12,59,8.70
2008,04,02,13,00,8.60
2008,04,02,13,01,8.60
2008,04,02,13,02,8.70
2008,04,02,13,03,8.80
2008,04,02,13,04,8.80
2008,04,02,13,05,8.90
2008,04,02,13,06,8.80
2008,04,02,13,07,8.70
2008,04,02,13,08,8.80
2008,04,02,13,09,8.80
2008,04,02,13,10,9.00
2008,04,02,13,11,9.10
2008,04,02,13,12,9.20
2008,04,02,13,13,9.50
2008,04,02,13,14,9.70
2008,04,02,13,15,9.80
2008,04,02,13,16,9.90
2008,04,02,13,17,9.90
2008,04,02,13,18,9.90
2008,04,02,13,19,9.90
2008,04,02,13,20,9.90
2008,04,02,13,21,9.70
2008,04,02,13,22,9.70
2008,04,02,13,23,9.70
2008,04,02,13,24,9.60
2008,04,02,13,25,9.60
2008,04,02,13,26,9.60
2008,04,02,13,27,9.70
2008,04,02,13,28,9.70
2008,04,02,13,29,9.80
2008,04,02,13,30,9.90
2008,04,02,13,31,9.90
2008,04,02,13,32,9.90
2008,04,02,13,33,9.90
2008,04,02,13,34,9.90
2008,04,02,13,35,9.80
2008,04,02,13,36,9.80
2008,04,02,13,37,9.80
2008,04,02,13,38,9.80
2008,04,02,13,39,9.80
2008,04,02,13,40,9.80
2008,04,02,13,41,9.90
2008,04,02,13,42,9.80
2008,04,02,13,43,9.80
2008,04,02,13,44,9.70
2008,04,02,13,45,9.70
2008,04,02,13,46,9.60
2008,04,02,13,47,9.60
2008,04,02,13,48,9.40
2008,04,02,13,49,9.30
2008,04,02,13,50,9.20
2008,04,02,13,51,9.20
2008,04,02,13,52,9.20
2008,04,02,13,53,9.20
2008,04,02,13,54,9.20
2008,04,02,13,55,9.40
2008,04,02,13,56,9.60
2008,04,02,13,57,9.60
2008,04,02,13,58,9.70
2008,04,02,13,59,9.70
2008,04,02,14,00,9.90
2008,04,02,14,01,10.10
2008,04,02,14,02,10.10
2008,04,02,14,03,10.00
2008,04,02,14,04,9.90
2008,04,02,14,05,9.80
2008,04,02,14,06,9.90
2008,04,02,14,07,9.90
2008,04,02,14,08,9.90
2008,04,02,14,09,9.70
2008,04,02,14,10,9.80
2008,04,02,14,11,9.80
2008,04,02,14,12,9.70
2008,04,02,14,13,9.70
2008,04,02,14,14,9.70
2008,04,02,14,15,9.70
2008,04,02,14,16,9.80
2008,04,02,14,17,9.90
2008,04,02,14,18,9.90
2008,04,02,14,19,9.90
2008,04,02,14,20,9.80
2008,04,02,14,21,9.80
2008,04,02,14,22,9.80
2008,04,02,14,23,9.70
2008,04,02,14,24,9.60
2008,04,02,14,25,9.50
2008,04,02,14,26,9.40
2008,04,02,14,27,9.20
2008,04,02,14,28,9.10
2008,04,02,14,29,9.00
2008,04,02,14,30,9.00
2008,04,02,14,31,9.00
2008,04,02,14,32,9.00
2008,04,02,14,33,9.10
2008,04,02,14,34,9.00
2008,04,02,14,35,9.00
2008,04,02,14,36,9.10
2008,04,02,14,37,9.10
2008,04,02,14,38,9.20
2008,04,02,14,39,9.20
2008,04,02,14,40,9.10
2008,04,02,14,41,9.10
2008,04,02,14,42,9.20
2008,04,02,14,43,9.20
2008,04,02,14,44,9.20
2008,04,02,14,45,9.30
2008,04,02,14,46,9.20
2008,04,02,14,47,9.20
2008,04,02,14,48,9.20
2008,04,02,14,49,9.10
2008,04,02,14,50,9.20
2008,04,02,14,51,9.20
2008,04,02,14,52,9.20
2008,04,02,14,53,9.20
2008,04,02,14,54,9.20
2008,04,02,14,55,9.20
2008,04,02,14,56,9.20
2008,04,02,14,57,9.20
2008,04,02,14,58,9.30
2008,04,02,14,59,9.30
2008,04,02,15,00,9.30
2008,04,02,15,01,9.30
2008,04,02,15,02,9.20
2008,04,02,15,03,9.20
2008,04,02,15,04,9.30
2008,04,02,15,05,9.30
2008,04,02,15,06,9.40
2008,04,02,15,07,9.50
2008,04,02,15,08,9.50
2008,04,02,15,09,9.50
2008,04,02,15,10,9.60
2008,04,02,15,11,9.50
2008,04,02,15,12,9.50
2008,04,02,15,13,9.60
2008,04,02,15,14,9.60
2008,04,02,15,15,9.60
2008,04,02,15,16,9.60
2008,04,02,15,17,9.50
2008,04,02,15,18,9.30
2008,04,02,15,19,9.10
2008,04,02,15,20,9.00
2008,04,02,15,21,9.00
2008,04,02,15,22,9.10
2008,04,02,15,23,9.20
2008,04,02,15,24,9.30
2008,04,02,15,25,9.30
2008,04,02,15,26,9.50
2008,04,02,15,27,9.60
2008,04,02,15,28,9.50
2008,04,02,15,29,9.40
2008,04,02,15,30,9.40
2008,04,02,15,31,9.20
2008,04,02,15,32,9.20
2008,04,02,15,33,9.30
2008,04,02,15,34,9.20
2008,04,02,15,35,9.20
2008,04,02,15,36,9.20
2008,04,02,15,37,9.10
2008,04,02,15,38,8.90
2008,04,02,15,39,8.80
2008,04,02,15,40,8.90
2008,04,02,15,41,8.90
2008,04,02,15,42,8.90
2008,04,02,15,43,8.90
2008,04,02,15,44,9.00
2008,04,02,15,45,9.00
2008,04,02,15,46,9.10
2008,04,02,15,47,9.10
2008,04,02,15,48,9.20
2008,04,02,15,49,9.20
2008,04,02,15,50,9.40
2008,04,02,15,51,9.50
2008,04,02,15,52,9.50
2008,04,02,15,53,9.60
2008,04,02,15,54,9.70
2008,04,02,15,55,9.70
2008,04,02,15,56,9.70
2008,04,02,15,57,9.70
2008,04,02,15,58,9.70
2008,04,02,15,59,9.70
2008,04,02,16,00,9.70
2008,04,02,16,01,9.60
2008,04,02,16,02,9.70
2008,04,02,16,03,9.70
2008,04,02,16,04,9.70
2008,04,02,16,05,9.70
2008,04,02,16,06,9.70
2008,04,02,16,07,9.60
2008,04,02,16,08,9.50
2008,04,02,16,09,9.50
2008,04,02,16,10,9.50
2008,04,02,16,11,9.30
2008,04,02,16,12,9.10
2008,04,02,16,13,9.00
2008,04,02,16,14,9.00
2008,04,02,16,15,9.10
2008,04,02,16,16,9.10
2008,04,02,16,17,9.00
2008,04,02,16,18,8.90
2008,04,02,16,19,8.90
2008,04,02,16,20,8.90
2008,04,02,16,21,8.90
2008,04,02,16,22,9.00
2008,04,02,16,23,9.00
2008,04,02,16,24,9.00
2008,04,02,16,25,8.90
2008,04,02,16,26,8.80
2008,04,02,16,27,8.80
2008,04,02,16,28,8.80
2008,04,02,16,29,8.80
2008,04,02,16,30,8.80
2008,04,02,16,31,8.70
2008,04,02,16,32,8.60
2008,04,02,16,33,8.60
2008,04,02,16,34,8.70
2008,04,02,16,35,8.80
2008,04,02,16,36,8.90
2008,04,02,16,37,8.90
2008,04,02,16,38,8.80
2008,04,02,16,39,8.80
2008,04,02,16,40,8.80
2008,04,02,16,41,8.80
2008,04,02,16,42,8.90
2008,04,02,16,43,8.80
2008,04,02,16,44,8.70
2008,04,02,16,45,8.70
2008,04,02,16,46,8.70
2008,04,02,16,47,8.80
2008,04,02,16,48,8.90
2008,04,02,16,49,8.80
2008,04,02,16,50,8.80
2008,04,02,16,51,8.70
2008,04,02,16,52,8.60
2008,04,02,16,53,8.60
2008,04,02,16,54,8.60
2008,04,02,16,55,8.70
2008,04,02,16,56,8.70
2008,04,02,16,57,8.70
2008,04,02,16,58,8.70
2008,04,02,16,59,8.80
2008,04,02,17,00,8.80
2008,04,02,17,01,8.80
2008,04,02,17,02,8.70
2008,04,02,17,03,8.80
2008,04,02,17,04,8.80
2008,04,02,17,05,8.80
2008,04,02,17,06,8.70
2008,04,02,17,07,8.70
2008,04,02,17,08,8.60
2008,04,02,17,09,8.70
2008,04,02,17,10,8.60
2008,04,02,17,11,8.70
2008,04,02,17,12,8.60
2008,04,02,17,13,8.60
2008,04,02,17,14,8.50
2008,04,02,17,15,8.40
2008,04,02,17,16,8.40
2008,04,02,17,17,8.30
2008,04,02,17,18,8.20
2008,04,02,17,19,8.20
2008,04,02,17,20,8.20
2008,04,02,17,21,8.30
2008,04,02,17,22,8.40
2008,04,02,17,23,8.50
2008,04,02,17,24,8.60
2008,04,02,17,25,8.60
2008,04,02,17,26,8.70
2008,04,02,17,27,8.60
2008,04,02,17,28,8.60
2008,04,02,17,29,8.60
2008,04,02,17,30,8.60
2008,04,02,17,31,8.50
2008,04,02,17,32,8.40
2008,04,02,17,33,8.40
2008,04,02,17,34,8.40
2008,04,02,17,35,8.30
2008,04,02,17,36,8.30
2008,04,02,17,37,8.30
2008,04,02,17,38,8.40
2008,04,02,17,39,8.50
2008,04,02,17,40,8.60
2008,04,02,17,41,8.70
2008,04,02,17,42,8.70
2008,04,02,17,43,8.70
2008,04,02,17,44,8.50
2008,04,02,17,45,8.40
2008,04,02,17,46,8.40
2008,04,02,17,47,8.40
2008,04,02,17,48,8.40
2008,04,02,17,49,8.50
2008,04,02,17,50,8.60
2008,04,02,17,51,8.50
2008,04,02,17,52,8.40
2008,04,02,17,53,8.40
2008,04,02,17,54,8.50
2008,04,02,17,55,8.40
2008,04,02,17,56,8.50
2008,04,02,17,57,8.50
2008,04,02,17,58,8.50
2008,04,02,17,59,8.50
2008,04,02,18,00,8.50
2008,04,02,18,01,8.50
2008,04,02,18,02,8.50
2008,04,02,18,03,8.50
2008,04,02,18,04,8.60
2008,04,02,18,05,8.60
2008,04,02,18,06,8.70
2008,04,02,18,07,8.70
2008,04,02,18,08,8.70
2008,04,02,18,09,8.70
2008,04,02,18,10,8.70
2008,04,02,18,11,8.60
2008,04,02,18,12,8.60
2008,04,02,18,13,8.60
2008,04,02,18,14,8.60
2008,04,02,18,15,8.60
2008,04,02,18,16,8.60
2008,04,02,18,17,8.70
2008,04,02,18,18,8.70
2008,04,02,18,19,8.70
2008,04,02,18,20,8.70
2008,04,02,18,21,8.70
2008,04,02,18,22,8.70
2008,04,02,18,23,8.60
2008,04,02,18,24,8.50
2008,04,02,18,25,8.50
2008,04,02,18,26,8.40
2008,04,02,18,27,8.40
2008,04,02,18,28,8.30
2008,04,02,18,29,8.20
2008,04,02,18,30,8.20
2008,04,02,18,31,8.20
2008,04,02,18,32,8.20
2008,04,02,18,33,8.30
2008,04,02,18,34,8.30
2008,04,02,18,35,8.30
2008,04,02,18,36,8.20
2008,04,02,18,37,8.20
2008,04,02,18,38,8.20
2008,04,02,18,39,8.20
2008,04,02,18,40,8.20
2008,04,02,18,41,8.10
2008,04,02,18,42,8.10
2008,04,02,18,43,8.00
2008,04,02,18,44,7.90
2008,04,02,18,45,7.90
2008,04,02,18,46,7.80
2008,04,02,18,47,7.80
2008,04,02,18,48,7.90
2008,04,02,18,49,7.80
2008,04,02,18,50,7.80
2008,04,02,18,51,7.80
2008,04,02,18,52,7.80
2008,04,02,18,53,7.80
2008,04,02,18,54,7.80
2008,04,02,18,55,7.80
2008,04,02,18,56,7.80
2008,04,02,18,57,7.80
2008,04,02,18,58,7.80
2008,04,02,18,59,7.80
2008,04,02,19,00,7.70
2008,04,02,19,01,7.70
2008,04,02,19,02,7.70
2008,04,02,19,03,7.60
2008,04,02,19,04,7.60
2008,04,02,19,05,7.60
2008,04,02,19,06,7.60
2008,04,02,19,07,7.50
2008,04,02,19,08,7.50
2008,04,02,19,09,7.40
2008,04,02,19,10,7.40
2008,04,02,19,11,7.30
2008,04,02,19,12,7.30
2008,04,02,19,13,7.30
2008,04,02,19,14,7.30
2008,04,02,19,15,7.30
2008,04,02,19,16,7.20
2008,04,02,19,17,7.20
2008,04,02,19,18,7.10
2008,04,02,19,19,7.10
2008,04,02,19,20,7.00
2008,04,02,19,21,7.00
2008,04,02,19,22,7.00
2008,04,02,19,23,6.90
2008,04,02,19,24,6.80
2008,04,02,19,25,6.80
2008,04,02,19,26,6.70
2008,04,02,19,27,6.60
2008,04,02,19,28,6.60
2008,04,02,19,29,6.60
2008,04,02,19,30,6.40
2008,04,02,19,31,6.40
2008,04,02,19,32,6.40
2008,04,02,19,33,6.30
2008,04,02,19,34,6.20
2008,04,02,19,35,6.20
2008,04,02,19,36,6.20
2008,04,02,19,37,6.10
2008,04,02,19,38,6.10
2008,04,02,19,39,6.10
2008,04,02,19,40,6.00
2008,04,02,19,41,6.00
2008,04,02,19,42,6.00
2008,04,02,19,43,5.90
2008,04,02,19,44,5.80
2008,04,02,19,45,5.80
2008,04,02,19,46,5.70
2008,04,02,19,47,5.70
2008,04,02,19,48,5.60
2008,04,02,19,49,5.60
2008,04,02,19,50,5.50
2008,04,02,19,51,5.50
2008,04,02,19,52,5.40
2008,04,02,19,53,5.40
2008,04,02,19,54,5.30
2008,04,02,19,55,5.30
2008,04,02,19,56,5.30
2008,04,02,19,57,5.30
2008,04,02,19,58,5.20
2008,04,02,19,59,5.10
2008,04,02,20,00,5.10
2008,04,02,20,01,5.10
2008,04,02,20,02,5.10
2008,04,02,20,03,5.00
2008,04,02,20,04,4.90
2008,04,02,20,05,4.90
2008,04,02,20,06,4.90
2008,04,02,20,07,4.90
2008,04,02,20,08,4.90
2008,04,02,20,09,4.90
2008,04,02,20,10,4.90
2008,04,02,20,11,4.80
2008,04,02,20,12,4.80
2008,04,02,20,13,4.80
2008,04,02,20,14,4.80
2008,04,02,20,15,4.70
2008,04,02,20,16,4.70
2008,04,02,20,17,4.70
2008,04,02,20,18,4.70
2008,04,02,20,19,4.60
2008,04,02,20,20,4.60
2008,04,02,20,21,4.60
2008,04,02,20,22,4.60
2008,04,02,20,23,4.60
2008,04,02,20,24,4.60
2008,04,02,20,25,4.50
2008,04,02,20,26,4.50
2008,04,02,20,27,4.50
2008,04,02,20,28,4.50
2008,04,02,20,29,4.50
2008,04,02,20,30,4.40
2008,04,02,20,31,4.40
2008,04,02,20,32,4.40
2008,04,02,20,33,4.50
2008,04,02,20,34,4.50
2008,04,02,20,35,4.50
2008,04,02,20,36,4.50
2008,04,02,20,37,4.50
2008,04,02,20,38,4.50
2008,04,02,20,39,4.50
2008,04,02,20,40,4.50
2008,04,02,20,41,4.50
2008,04,02,20,42,4.50
2008,04,02,20,43,4.50
2008,04,02,20,44,4.50
2008,04,02,20,45,4.50
2008,04,02,20,46,4.50
2008,04,02,20,47,4.50
2008,04,02,20,48,4.50
2008,04,02,20,49,4.50
2008,04,02,20,50,4.40
2008,04,02,20,51,4.40
2008,04,02,20,52,4.40
2008,04,02,20,53,4.40
2008,04,02,20,54,4.30
2008,04,02,20,55,4.30
2008,04,02,20,56,4.30
2008,04,02,20,57,4.20
2008,04,02,20,58,4.20
2008,04,02,20,59,4.20
2008,04,02,21,00,4.20
2008,04,02,21,01,4.20
2008,04,02,21,02,4.10
2008,04,02,21,03,4.10
2008,04,02,21,04,4.10
2008,04,02,21,05,4.10
2008,04,02,21,06,4.00
2008,04,02,21,07,4.00
2008,04,02,21,08,4.00
2008,04,02,21,09,4.00
2008,04,02,21,10,4.10
2008,04,02,21,11,4.10
2008,04,02,21,12,4.10
2008,04,02,21,13,4.00
2008,04,02,21,14,4.00
2008,04,02,21,15,4.00
2008,04,02,21,16,4.00
2008,04,02,21,17,4.00
2008,04,02,21,18,4.00
2008,04,02,21,19,4.00
2008,04,02,21,20,4.00
2008,04,02,21,21,3.90
2008,04,02,21,22,3.90
2008,04,02,21,23,3.90
2008,04,02,21,24,3.90
2008,04,02,21,25,3.80
2008,04,02,21,26,3.80
2008,04,02,21,27,3.80
2008,04,02,21,28,3.80
2008,04,02,21,29,3.80
2008,04,02,21,30,3.80
2008,04,02,21,31,3.80
2008,04,02,21,32,3.80
2008,04,02,21,33,3.80
2008,04,02,21,34,3.80
2008,04,02,21,35,3.80
2008,04,02,21,36,3.80
2008,04,02,21,37,3.80
2008,04,02,21,38,3.80
2008,04,02,21,39,3.80
2008,04,02,21,40,3.80
2008,04,02,21,41,3.80
2008,04,02,21,42,3.80
2008,04,02,21,43,3.80
2008,04,02,21,44,3.70
2008,04,02,21,45,3.70
2008,04,02,21,46,3.70
2008,04,02,21,47,3.70
2008,04,02,21,48,3.70
2008,04,02,21,49,3.70
2008,04,02,21,50,3.60
2008,04,02,21,51,3.60
2008,04,02,21,52,3.60
2008,04,02,21,53,3.60
2008,04,02,21,54,3.60
2008,04,02,21,55,3.60
2008,04,02,21,56,3.50
2008,04,02,21,57,3.50
2008,04,02,21,58,3.50
2008,04,02,21,59,3.50
2008,04,02,22,00,3.40
2008,04,02,22,01,3.40
2008,04,02,22,02,3.40
2008,04,02,22,03,3.40
2008,04,02,22,04,3.40
2008,04,02,22,05,3.40
2008,04,02,22,06,3.40
2008,04,02,22,07,3.40
2008,04,02,22,08,3.40
2008,04,02,22,09,3.50
2008,04,02,22,10,3.50
2008,04,02,22,11,3.50
2008,04,02,22,12,3.50
2008,04,02,22,13,3.50
2008,04,02,22,14,3.50
2008,04,02,22,15,3.50
2008,04,02,22,16,3.50
2008,04,02,22,17,3.50
2008,04,02,22,18,3.50
2008,04,02,22,19,3.50
2008,04,02,22,20,3.50
2008,04,02,22,21,3.40
2008,04,02,22,22,3.40
2008,04,02,22,23,3.40
2008,04,02,22,24,3.40
2008,04,02,22,25,3.40
2008,04,02,22,26,3.40
2008,04,02,22,27,3.40
2008,04,02,22,28,3.30
2008,04,02,22,29,3.30
2008,04,02,22,30,3.30
2008,04,02,22,31,3.30
2008,04,02,22,32,3.30
2008,04,02,22,33,3.30
2008,04,02,22,34,3.30
2008,04,02,22,35,3.30
2008,04,02,22,36,3.30
2008,04,02,22,37,3.30
2008,04,02,22,38,3.30
2008,04,02,22,39,3.30
2008,04,02,22,40,3.30
2008,04,02,22,41,3.30
2008,04,02,22,42,3.30
2008,04,02,22,43,3.30
2008,04,02,22,44,3.30
2008,04,02,22,45,3.20
2008,04,02,22,46,3.20
2008,04,02,22,47,3.20
2008,04,02,22,48,3.10
2008,04,02,22,49,3.10
2008,04,02,22,50,3.10
2008,04,02,22,51,3.10
2008,04,02,22,52,3.10
2008,04,02,22,53,3.10
2008,04,02,22,54,3.10
2008,04,02,22,55,3.10
2008,04,02,22,56,3.10
2008,04,02,22,57,3.10
2008,04,02,22,58,3.00
2008,04,02,22,59,2.90
2008,04,02,23,00,2.90
2008,04,02,23,01,2.90
2008,04,02,23,02,2.90
2008,04,02,23,03,2.90
2008,04,02,23,04,2.90
2008,04,02,23,05,2.90
2008,04,02,23,06,2.90
2008,04,02,23,07,2.90
2008,04,02,23,08,2.90
2008,04,02,23,09,2.90
2008,04,02,23,10,2.90
2008,04,02,23,11,2.90
2008,04,02,23,12,2.80
2008,04,02,23,13,2.80
2008,04,02,23,14,2.80
2008,04,02,23,15,2.80
2008,04,02,23,16,2.80
2008,04,02,23,17,2.80
2008,04,02,23,18,2.70
2008,04,02,23,19,2.70
2008,04,02,23,20,2.70
2008,04,02,23,21,2.70
2008,04,02,23,22,2.70
2008,04,02,23,23,2.70
2008,04,02,23,24,2.70
2008,04,02,23,25,2.60
2008,04,02,23,26,2.60
2008,04,02,23,27,2.60
2008,04,02,23,28,2.60
2008,04,02,23,29,2.50
2008,04,02,23,30,2.50
2008,04,02,23,31,2.50
2008,04,02,23,32,2.40
2008,04,02,23,33,2.40
2008,04,02,23,34,2.40
2008,04,02,23,35,2.30
2008,04,02,23,36,2.30
2008,04,02,23,37,2.30
2008,04,02,23,38,2.20
2008,04,02,23,39,2.20
2008,04,02,23,40,2.20
2008,04,02,23,41,2.20
2008,04,02,23,42,2.20
2008,04,02,23,43,2.20
2008,04,02,23,44,2.20
2008,04,02,23,45,2.20
2008,04,02,23,46,2.10
2008,04,02,23,47,2.10
2008,04,02,23,48,2.10
2008,04,02,23,49,2.10
2008,04,02,23,50,2.00
2008,04,02,23,51,2.00
2008,04,02,23,52,2.00
2008,04,02,23,53,1.90
2008,04,02,23,54,1.90
2008,04,02,23,55,1.80
2008,04,02,23,56,1.80
2008,04,02,23,57,1.80
2008,04,02,23,58,1.80
2008,04,02,23,59,1.80
